Meteo pe oră la Almáskamarás

Astăzi, 20 Ianuarie, Miercuri

Timp Temperatura Precipitaţii Vânt Presiune Umiditate
00:00 -4°C° 0 mm 5 m/s 756 mmHg 85%
01:00 -2°C° 0 mm 5 m/s 756 mmHg 83%
02:00 -2°C° 0 mm 5 m/s 755 mmHg 83%
03:00 -3°C° 0 mm 6 m/s 755 mmHg 83%
04:00 -3°C° 0 mm 6 m/s 755 mmHg 83%
05:00 -1°C° 0 mm 5 m/s 755 mmHg 84%
06:00 -1°C° 0 mm 5 m/s 755 mmHg 85%
07:00 -1°C° 0 mm 5 m/s 755 mmHg 87%
08:00 -1°C° 0 mm 5 m/s 756 mmHg 88%
09:00 0°C° 0 mm 5 m/s 756 mmHg 88%
10:00 0°C° 0 mm 5 m/s 757 mmHg 89%
11:00 0°C° 0 mm 5 m/s 757 mmHg 90%
12:00 +1°C° 0 mm 5 m/s 757 mmHg 90%
13:00 +2°C° 0 mm 5 m/s 756 mmHg 90%
14:00 +1°C° 0 mm 5 m/s 756 mmHg 89%
15:00 +1°C° 0 mm 5 m/s 756 mmHg 88%
16:00 0°C° 0 mm 5 m/s 757 mmHg 87%
17:00 0°C° 0 mm 5 m/s 756 mmHg 87%
18:00 -1°C° 0 mm 5 m/s 756 mmHg 87%
19:00 -2°C° 0 mm 5 m/s 756 mmHg 87%
20:00 -2°C° 0 mm 5 m/s 757 mmHg 85%
21:00 -2°C° 0 mm 5 m/s 757 mmHg 84%
22:00 -2°C° 0 mm 5 m/s 757 mmHg 83%
23:00 -2°C° 0 mm 5 m/s 757 mmHg 83%

Mâine, 21 Ianuarie, Joi

Timp Temperatura Precipitaţii Vânt Presiune Umiditate
00:00 -2°C° 0 mm 5 m/s 756 mmHg 84%
01:00 -1°C° 0 mm 5 m/s 756 mmHg 85%
02:00 -1°C° 0 mm 5 m/s 756 mmHg 84%
03:00 -2°C° 0 mm 6 m/s 756 mmHg 84%
04:00 -2°C° 0 mm 6 m/s 756 mmHg 83%
05:00 -2°C° 0 mm 6 m/s 755 mmHg 83%
06:00 -2°C° 0 mm 6 m/s 755 mmHg 82%
07:00 -2°C° 0 mm 6 m/s 755 mmHg 81%
08:00 -1°C° 0 mm 6 m/s 755 mmHg 81%
09:00 +1°C° 0 mm 6 m/s 755 mmHg 80%
10:00 0°C° 0 mm 7 m/s 755 mmHg 79%
11:00 +2°C° 0 mm 7 m/s 754 mmHg 79%
12:00 +3°C° 0 mm 7 m/s 754 mmHg 78%
13:00 +3°C° 0 mm 7 m/s 754 mmHg 78%
14:00 +3°C° 0 mm 6 m/s 754 mmHg 79%
15:00 +2°C° 0 mm 6 m/s 753 mmHg 80%
16:00 +2°C° 0 mm 6 m/s 753 mmHg 82%
17:00 +2°C° 0 mm 6 m/s 753 mmHg 82%
18:00 +1°C° 0 mm 6 m/s 753 mmHg 82%
19:00 +1°C° 0 mm 6 m/s 753 mmHg 83%
20:00 +1°C° 0 mm 6 m/s 753 mmHg 83%
21:00 +1°C° 0 mm 6 m/s 753 mmHg 84%
22:00 +1°C° 0 mm 6 m/s 753 mmHg 84%
23:00 -1°C° 0 mm 6 m/s 753 mmHg 84%

Poimâine, 22 Ianuarie, Vineri

Timp Temperatura Precipitaţii Vânt Presiune Umiditate
00:00 -1°C° 0 mm 6 m/s 753 mmHg 84%
01:00 -1°C° 0 mm 6 m/s 753 mmHg 84%
02:00 -1°C° 0 mm 6 m/s 752 mmHg 83%
03:00 -1°C° 0 mm 6 m/s 752 mmHg 82%
04:00 -1°C° 0 mm 6 m/s 751 mmHg 82%
05:00 +1°C° 0 mm 6 m/s 751 mmHg 82%
06:00 0°C° 0 mm 7 m/s 751 mmHg 83%
07:00 0°C° 0 mm 7 m/s 751 mmHg 83%
08:00 +2°C° 0 mm 7 m/s 751 mmHg 81%
09:00 +2°C° 0 mm 8 m/s 750 mmHg 79%
10:00 +5°C° 0 mm 8 m/s 750 mmHg 77%
11:00 +6°C° 0 mm 8 m/s 749 mmHg 75%
12:00 +7°C° 0 mm 8 m/s 749 mmHg 73%
13:00 +9°C° 0 mm 8 m/s 748 mmHg 71%
14:00 +7°C° 0 mm 8 m/s 748 mmHg 72%
15:00 +7°C° 0 mm 8 m/s 747 mmHg 74%
16:00 +6°C° 0 mm 8 m/s 747 mmHg 76%
17:00 +6°C° 0.1 mm 9 m/s 747 mmHg 76%
18:00 +6°C° 0.1 mm 9 m/s 747 mmHg 77%
19:00 +6°C° 0.1 mm 10 m/s 747 mmHg 77%
20:00 +6°C° 0 mm 10 m/s 746 mmHg 76%
21:00 +6°C° 0 mm 10 m/s 746 mmHg 76%
22:00 +6°C° 0 mm 10 m/s 746 mmHg 75%
23:00 +6°C° 0.2 mm 10 m/s 746 mmHg 77%

23 Ianuarie, Sâmbătă

Timp Temperatura Precipitaţii Vânt Presiune Umiditate
00:00 +6°C° 0.2 mm 10 m/s 745 mmHg 80%
01:00 +6°C° 0.2 mm 9 m/s 745 mmHg 82%
02:00 +6°C° 0.1 mm 10 m/s 745 mmHg 80%
03:00 +6°C° 0.1 mm 10 m/s 745 mmHg 78%
04:00 +6°C° 0.1 mm 10 m/s 744 mmHg 76%
05:00 +6°C° 0 mm 9 m/s 744 mmHg 76%
06:00 +6°C° 0 mm 9 m/s 744 mmHg 77%
07:00 +6°C° 0 mm 8 m/s 744 mmHg 77%
08:00 +6°C° 0 mm 8 m/s 743 mmHg 75%
09:00 +7°C° 0 mm 8 m/s 743 mmHg 72%
10:00 +7°C° 0 mm 9 m/s 743 mmHg 70%
11:00 +8°C° 0 mm 9 m/s 742 mmHg 67%
12:00 +10°C° 0 mm 9 m/s 741 mmHg 65%
13:00 +11°C° 0 mm 9 m/s 741 mmHg 62%
14:00 +10°C° 0 mm 9 m/s 740 mmHg 62%
15:00 +10°C° 0 mm 9 m/s 739 mmHg 63%
16:00 +8°C° 0 mm 9 m/s 738 mmHg 64%
17:00 +8°C° 0.1 mm 10 m/s 739 mmHg 67%
18:00 +8°C° 0.1 mm 11 m/s 739 mmHg 71%
19:00 +7°C° 0.1 mm 11 m/s 739 mmHg 74%
20:00 +7°C° 0.3 mm 9 m/s 740 mmHg 78%
21:00 +6°C° 0.3 mm 7 m/s 740 mmHg 82%
22:00 +7°C° 0.3 mm 5 m/s 740 mmHg 86%
23:00 +6°C° 0.1 mm 5 m/s 740 mmHg 85%

24 Ianuarie, Duminică

Timp Temperatura Precipitaţii Vânt Presiune Umiditate
00:00 +6°C° 0.1 mm 5 m/s 740 mmHg 85%
01:00 +5°C° 0.1 mm 5 m/s 740 mmHg 85%
02:00 +5°C° 0 mm 4 m/s 740 mmHg 85%
03:00 +5°C° 0 mm 4 m/s 739 mmHg 86%
04:00 +4°C° 0 mm 3 m/s 739 mmHg 86%
05:00 +4°C° 0.5 mm 3 m/s 739 mmHg 88%
06:00 +5°C° 0.5 mm 2 m/s 739 mmHg 89%
07:00 +5°C° 0.5 mm 2 m/s 739 mmHg 90%
08:00 +6°C° 0.1 mm 2 m/s 739 mmHg 90%
09:00 +5°C° 0.1 mm 3 m/s 740 mmHg 89%
10:00 +5°C° 0.1 mm 4 m/s 740 mmHg 88%
11:00 +5°C° 0.1 mm 4 m/s 740 mmHg 88%
12:00 +3°C° 0.1 mm 5 m/s 741 mmHg 88%
13:00 +3°C° 0.1 mm 5 m/s 741 mmHg 88%
14:00 +3°C° 0 mm 5 m/s 741 mmHg 85%
15:00 +4°C° 0 mm 4 m/s 742 mmHg 82%
16:00 +4°C° 0 mm 4 m/s 743 mmHg 78%
17:00 +3°C° 0 mm 3 m/s 743 mmHg 80%
18:00 +2°C° 0 mm 3 m/s 744 mmHg 82%
19:00 +2°C° 0 mm 3 m/s 744 mmHg 84%
20:00 +2°C° 0 mm 2 m/s 745 mmHg 85%
21:00 +2°C° 0 mm 2 m/s 745 mmHg 86%
22:00 +1°C° 0 mm 2 m/s 746 mmHg 87%
23:00 +1°C° 0 mm 2 m/s 745 mmHg 87%

25 Ianuarie, Luni

Timp Temperatura Precipitaţii Vânt Presiune Umiditate
00:00 +2°C° 0 mm 1 m/s 745 mmHg 88%
01:00 +2°C° 0 mm 1 m/s 745 mmHg 89%
02:00 +2°C° 0 mm 1 m/s 745 mmHg 89%
03:00 +1°C° 0 mm 2 m/s 744 mmHg 89%
04:00 +1°C° 0 mm 2 m/s 744 mmHg 89%
05:00 0°C° 0 mm 3 m/s 743 mmHg 87%
06:00 -1°C° 0 mm 4 m/s 743 mmHg 86%
07:00 0°C° 0 mm 5 m/s 742 mmHg 84%
08:00 0°C° 0 mm 5 m/s 741 mmHg 80%
09:00 +1°C° 0 mm 5 m/s 740 mmHg 77%
10:00 +1°C° 0 mm 6 m/s 739 mmHg 73%
11:00 +1°C° 1.4 mm 5 m/s 738 mmHg 79%
12:00 +1°C° 1.4 mm 4 m/s 737 mmHg 86%
13:00 +2°C° 1.4 mm 3 m/s 737 mmHg 92%
14:00 +1°C° 1.4 mm 4 m/s 736 mmHg 93%
15:00 +1°C° 1.4 mm 4 m/s 736 mmHg 95%
16:00 +1°C° 1.4 mm 5 m/s 736 mmHg 96%
17:00 +1°C° 0.4 mm 4 m/s 736 mmHg 95%
18:00 +1°C° 0.4 mm 4 m/s 736 mmHg 94%
19:00 +2°C° 0.4 mm 3 m/s 737 mmHg 92%
20:00 +2°C° 0.6 mm 3 m/s 737 mmHg 93%
21:00 +2°C° 0.6 mm 3 m/s 737 mmHg 93%
22:00 +2°C° 0.6 mm 3 m/s 737 mmHg 94%
23:00 0°C° 0.5 mm 4 m/s 738 mmHg 95%
Arată mai mult

Formular de consimțământ

Meteoprog și furnizorii noștri de servicii pot stoca și accesa date personale, precum cookies, identificatori de dispozitiv sau alte tehnologii similare pe dispozitivul dumneavoastră și procesa astfel de date pentru a personaliza conținutul și reclamele, dar și pentru a oferi caracteristici de social media și pentru a analiza traficul.

  • Stocarea și/sau accesarea informațiilor pe dispozitivul dumneavoastră

    Cookies, identificatori de dispozitiv sau alte informații pot fi stocate sau accesate pe dispozitiv în scopurile indicate mai sus.

  • Reclame și conținut personalizat, evaluarea reclamelor și a conținutului, informații despre audiențe și dezvoltarea produselor

    Reclamele și conținutul pot fi personalizate pe baza unui profil. Pot fi adăugate date suplimentare pentru a personaliza mai bine reclamele și conținutul. Performanța reclamelor și conținutului poate fi măsurată. Pot fi obținute informații despre utilizatorii care au văzut reclamele și conținutul. Aceste date pot fi utilizate pentru a dezvolta sau îmbunătăți experiența utilizatorilor, sistemele și software-ul.

Dând clic pe ‘Sunt de acord’, permiteți utilizarea cookie-urilor menționate, a identificatorilor de dispozitiv, balizelor web sau altor tehnologii similare. Setările pot fi modificate din browser-ul dispozitivului dumneavoastră.

În anumite scopuri, interesele legitime pot prima asupra consimțământului. Puteți citi mai multe informații în acest sens în Politica privind Confidențialitatea Datelor și Cookie.